星链-31233 (STARLINK-31233 )

导读

STARLINK-31233是美国太空探索技术公司SpaceX于2024年1月24日发射的星链低轨互联网卫星,是SpaceX全球卫星互联网组网计划的组成部分。星链计划依托数千颗近地轨道卫星组网,为全球传统通信基础设施覆盖不足的偏远地区提供高速、低延迟宽带互联网服务,STARLINK-31233的入轨进一步完善了星链星座的全球覆盖能力与网络服务稳定性。

基本信息
目录编号:
58826
目录名称:
STARLINK-31233
国际标识:
2024-017A
轨道中心:
EARTH
卫星名称:
星链-31233
卫星全名:
星链-31233 (STARLINK-31233 )
卫星状态:
在轨 (已飞行954 天)
发射日期:
2024-01-24 UTC
国别 :
美国 (US)
星等 :
--
轨道信息
数据来源 国际轨道数据
星历时间: 2026-09-03T05:20:16+0800
1天前
查看轨道信息
半长轴: 6840.848km
偏心率: 0.0001479
轨道倾角: 53.162°
近地点辐角 89.282°
升交点赤经 100.020°
平近点角 270.836°
近地点: 461.699km
远地点: 463.723km
周期: 93.848分钟
每日圈数: 15.343977
详细信息
固有亮度:
5
最大亮度:
0.3
卫星平台:
Starlink v2.0 mini
覆盖范围:
全球
运营商:
太空探索技术公司
运营商所在国:
美国
制造商(研发单位):
太空探索技术公司
制造商所在国:
美国
使用方式:
暂无
卫星简介
星链(Starlink)计划是由太空探索技术公司(SpaceX)提出的一个巨型低轨卫星互联网星座项目,计划在2019年至2024年间在太空搭建由约1.2万颗卫星组成的“星链”网络,其中1584颗将部署在地球上空550千米处的近地轨道,并从2020年开始工作。该卫星仍在工作。
2D轨道图
3D轨道图
轨道高度分析图
轨道倾角分析图
轨道综合分析图
查看轨道综合分析图
交会数据列表
事件ID 空间交会对象 最接近时刻(TCA) 交会距离 交会风险概率(CRP) 交会风险指数(CRI) 操作
CDM_260904-163505-343105-882621
2026-09-04T
16:35:38+0000
2.739 km
极远距离
1.073455E-6 低风险 0.36